OPS 4682 DEB, 14048

Orbit data source: Space-Track

OPS 4682 DEB, 14048 is space debris in LEO originally from a launch on Sat, 03 Apr 1965 UTC launched from the Air Force Western Test Range (AFWTR). Debris objects in space refer to the collection of defunct objects orbiting the Earth. Examples of debris include non-operational satellites, rocket bodies, and fragments generated from explosions, collisions, or faulty payload assembly.

Loading next visibility...
Identifier
14048, 1965-027K
Orbit
LEO
Country
Flag of USUS
Related business
Manufacturer
Unknown
Mission
Spacecraft
Bus & Motor
Unknown
Mass
Unknown
Launch date (UTC)
1965-04-03 (61 years ago)
Launch vehicle
Unknown
Launch site
Air Force Western Test Range (AFWTR)
Object type
Payload
Rocket body
Debris
Shape & HBR
Unknown shape, 0.1 m
Radar Cross Section
Medium (>0.1 m² and <1 m²)

Expand to show TLE details & history
Last TLE update: 3 days ago

TLE from 3 days ago
0 OPS 4682 DEB
1 14048U 65027K   26205.49514919  .00000181  00000-0  58377-3 0  9997
2 14048  90.2484  15.6586 0016439 171.8810 248.2358 12.99256491 58559
Epoch: 2026-07-24T11:53Z
TLE epoch observation values (Epoch: 2026-07-24T11:53:00.890Z)
Latitude
60.02841°
Longitude
-105.24465°
Altitude
1,279.956 km
Speed
7.219 km/s
True Right ascension
01h 00m 55s
True Declination
59° 53' 22"
Sunlit
Object was in daylight at epoch
Visualization orbit readout
Latitude
Unknown
Longitude
Unknown
Altitude
Unknown
Speed
Unknown
Apparent Right ascension
Unknown
Apparent Declination
Unknown
Sunlit
N/A
Visualization observer readout
Local Sidereal Time
23:13:41
Azimuth
Unknown
Elevation
Unknown
Doppler factor
Unknown
Orbital elements
Apogee altitude
1,274.689 km
Perigee altitude
1,249.569 km
Semi-major axis
7,640.266 km
Eccentricity
0.00164
Inclination
90.2484°
RAAN
15.6586°
Arg. of periapsis
171.881°
True anomaly
248.06098°
Mean anomaly
248.2358°
Eccentric anomaly
248.14838°
Mean motion
3.24998 °/min
Orbital period
110.77 mins
BSTAR
0.00058377
Loading maneuver chart data...
Computing Atmospheric mass density...
Loading historical data...
Loading historical data...
Loading historical data...
Loading historical data...
Loading historical data...
Loading historical data...
Loading historical data...

Documentation

Showing up to 5 results
|